DELTA 1 DEB, 40765

Orbit data source: Space-Track

DELTA 1 DEB, 40765 is space debris in SSO originally from a launch on Thu, 29 Jul 1976 UTC launched from the Air Force Western Test Range (AFWTR). Debris objects in space refer to the collection of defunct objects orbiting the Earth. Examples of debris include non-operational satellites, rocket bodies, and fragments generated from explosions, collisions, or faulty payload assembly.

Loading next visibility...
Identifier
40765, 1976-077GJ
Orbit
SSO
Country
Flag of USUS
Related business
Manufacturer
Unknown
Mission
Spacecraft
Bus & Motor
Unknown
Mass
Unknown
Launch date (UTC)
1976-07-29 (49 years ago)
Launch vehicle
Unknown
Launch site
Air Force Western Test Range (AFWTR)
Object type
Payload
Rocket body
Debris
Shape & HBR
Unknown shape, 0.1 m
Radar Cross Section
Small (<0.1 m²)

Expand to show TLE details & history
Last TLE update: 16 hours ago

TLE from 16 hours ago
0 DELTA 1 DEB
1 40765U 76077GJ  25301.49385529  .00000054  00000-0  69864-3 0  9990
2 40765 102.1581 295.9202 0028027 130.1092 230.2436 12.45413433542445
Epoch: 2025-10-28T11:51Z
TLE epoch observation values (Epoch: 2025-10-28T11:51:09.097Z)
Latitude
-0.00003°
Longitude
81.05175°
Altitude
1,500.419 km
Speed
7.108 km/s
True Right ascension
19h 43m 40s
True Declination
0° 00' 00"
Sunlit
Object was in daylight at epoch
Visualization orbit readout
Latitude
Unknown
Longitude
Unknown
Altitude
Unknown
Speed
Unknown
Apparent Right ascension
Unknown
Apparent Declination
Unknown
Sunlit
N/A
Visualization observer readout
Local Sidereal Time
23:46:17
Azimuth
Unknown
Elevation
Unknown
Doppler factor
Unknown
Orbital elements
Apogee altitude
1,503.343 km
Perigee altitude
1,459.288 km
Semi-major axis
7,859.452 km
Eccentricity
0.0028
Inclination
102.1581°
RAAN
295.9202°
Arg. of periapsis
130.1092°
True anomaly
229.99725°
Mean anomaly
230.2436°
Eccentric anomaly
230.12037°
Mean motion
3.11498 °/min
Orbital period
115.57 mins
BSTAR
0.00069864
Loading maneuver chart data...
Computing Atmospheric mass density...
Loading historical data...
Loading historical data...
Loading historical data...
Loading historical data...
Loading historical data...
Loading historical data...
Loading historical data...

Documentation

Showing up to 5 results
|